Regional Weather Roundup
Issued by NWS Cleveland, OH

Home | Current Version | Previous Version | Graphics & Text | Print | Product List | Glossary On
Versions: 1 2 3 4 5 6 7 8 9 10 11 12 13 14 15 16 17 18 19 20 21 22 23 24 25 26 27 28 29 30 31 32 33 34 35 36 37 38 39 40 41 42 43 44 45 46 47 48 49 50
000
ASUS41 KCLE 240900
RWRCLE
OHIO REGIONAL WEATHER ROUNDUP
NATIONAL WEATHER SERVICE WILMINGTON, OH
500 AM EDT FRI MAR 24 2017

NOTE: "FAIR" INDICATES FEW OR NO CLOUDS BELOW 12,000 FEET WITH NO
SIGNIFICANT WEATHER AND/OR OBSTRUCTIONS TO VISIBILITY.

OHZ001>008-015>018-024>027-034-035-043-044-241000-
   NORTHWEST OHIO

CITY           SKY/WX    TMP DP  RH WIND       PRES   REMARKS
DEFIANCE       FAIR      45  36  70 S7        30.05F
FINDLAY        CLOUDY    47  35  63 S7        30.08F
TOLEDO EXPRESS CLOUDY    43  38  82 S9        30.05F
TOLEDO EXEC    MOCLDY    45  38  76 S12       30.06F
LIMA           MOCLDY    51  37  58 S14       30.09S
$$

OHZ009>014-019>023-028>033-038-089-241000-
   NORTHEAST OHIO

CITY           SKY/WX    TMP DP  RH WIND       PRES   REMARKS
CLE-HOPKINS    LGT RAIN  46  36  68 S21G28    30.14F
CLE-LAKEFRONT  LGT RAIN  43  37  79 S22       30.07F
CUY CO. ARPT   NOT AVBL
LORAIN-ELYRIA  LGT RAIN  40  34  79 S12       30.15S
ASHTABULA      LGT RAIN  39  29  67 S12       30.14F
AKRON-CANTON   RAIN      40  33  76 S12       30.17F
WOOSTER        NOT AVBL
MANSFIELD      CLOUDY    46  32  58 SE12      30.13F
YOUNGSTOWN     LGT RAIN  39  30  70 S9        30.17F
$$

OHZ042-051>053-060>062-070>072-077>081-241000-
  SOUTHWEST OHIO

CITY           SKY/WX    TMP DP  RH WIND       PRES   REMARKS
CINC-COVINGTON FAIR      53  40  61 S13       30.12F
CINC-LUNKEN    FAIR      51  41  68 S9        30.15F
HAMILTON       FAIR      55  40  56 VRB3      30.14S
DAYTON         NOT AVBL
WRIGHT-PAT AFB CLOUDY    51  35  55 SE8       30.13R
DAYTON GENERAL FAIR      55  39  54 SW14      30.12S
WILMINGTON     FAIR      52  39  61 S14       30.14S
$$

OHZ036-037-039>041-045>050-054>059-063>069-073>076-082>088-241000-
  CENTRAL AND SOUTHEAST OHIO

CITY           SKY/WX    TMP DP  RH WIND       PRES   REMARKS
COLUMBUS       CLOUDY    50  33  52 S3        30.16R
OSU AIRPORT    FAIR      48  30  49 S7        30.15S
BOLTON FIELD   NOT AVBL
RICKENBACK AFB NOT AVBL
NEWARK         MOCLDY    49  29  46 S6        30.16S
MARION         CLOUDY    47  32  56 S10       30.13S
LANCASTER      MOCLDY    52  32  46 S5        30.17R
ZANESVILLE     CLOUDY    49  29  46 S8        30.18S
NEW PHILLY     CLOUDY    41  37  86 E5        30.20S
$$



USA.gov is the U.S. government's official web portal to all federal, state and local government web resources and services.